Location: Utrecht
(52.0917°N, 5.1178°E)
Time: 06:02:51
(UTC+02:00)

Envisat - Visible Passes

Search period start: 17 October 2017 00:00
Search period end: 27 October 2017 00:00
Orbit: 764 x 766 km, 98.2° (Epoch: 16 October)

Date Brightness Start Highest point End Pass type
(mag) Time Alt. Az. Time Alt. Az. Time Alt. Az.
17 Oct 4.5 19:28:34 10° E 19:31:48 17° NE 19:35:01 10° NNE visible
17 Oct 2.9 21:08:39 48° SSE 21:10:07 84° ENE 21:15:14 10° NNW visible
17 Oct 5.4 22:48:52 16° W 22:49:49 17° W 22:53:04 10° NW visible
18 Oct 3.3 20:31:40 31° ESE 20:33:31 44° ENE 20:38:20 10° N visible
18 Oct 4.5 22:11:53 30° WSW 22:12:41 32° W 22:17:15 10° NNW visible
19 Oct 4.1 19:54:41 18° E 19:57:05 25° ENE 20:01:11 10° N visible
19 Oct 3.3 21:34:55 54° SW 21:35:45 62° WSW 21:40:50 10° NNW visible
20 Oct 4.7 19:18:08 10° E 19:20:51 15° NE 19:23:34 10° NNE visible
20 Oct 2.9 20:57:55 53° SE 20:59:01 70° ENE 21:04:06 10° N visible
20 Oct 5.2 22:38:08 20° W 22:38:34 20° W 22:42:19 10° NW visible
21 Oct 3.5 20:20:56 30° E 20:22:28 37° ENE 20:27:08 10° N visible
21 Oct 4.1 22:01:09 38° WSW 22:01:30 39° W 22:06:16 10° NNW visible
22 Oct 4.3 19:43:57 17° E 19:46:06 21° ENE 19:49:53 10° N visible
22 Oct 3.0 21:24:10 70° SSW 21:24:37 75° WSW 21:29:44 10° NNW visible
22 Oct 5.7 23:04:23 13° W 23:04:33 13° W 23:06:43 10° WNW visible
23 Oct 4.8 19:07:51 10° ENE 19:09:55 12° NE 19:11:59 10° NNE visible
23 Oct 3.0 20:47:11 52° ESE 20:47:56 58° ENE 20:52:57 10° N visible
23 Oct 4.9 22:27:24 25° W 22:27:24 25° W 22:31:29 10° NW visible
24 Oct 3.7 20:10:12 28° E 20:11:27 31° ENE 20:15:54 10° N visible
24 Oct 3.8 21:50:25 47° W 21:50:25 47° W 21:55:15 10° NNW visible
25 Oct 4.4 19:33:12 15° E 19:35:07 18° NE 19:38:32 10° NNE visible
25 Oct 2.8 21:13:25 87° SSE 21:13:30 90° ESE 21:18:38 10° NNW visible
25 Oct 5.6 22:53:38 15° W 22:53:38 15° W 22:56:16 10° NW visible
26 Oct 4.9 18:58:00 10° ENE 18:58:59 11° NE 19:00:00 10° NE visible
26 Oct 3.2 20:36:26 46° E 20:36:53 48° ENE 20:41:46 10° N visible
26 Oct 4.7 22:16:39 29° W 22:16:39 29° W 22:20:35 10° NNW visible
